Weather History for Hilo, HI

Change the Weather History Date:

Saturday, March 1, 2014

  Actual Average Record
Temperature  
Mean Temperature 72 °F 71 °F  
Max Temperature 82 °F 79 °F 88 °F (1968)
Min Temperature 61 °F 64 °F 59 °F (1965)
Degree Days  
Heating Degree Days 0 0  
Month to date heating degree days 0 0  
Since 1 July heating degree days 0 0  
Cooling Degree Days 7 6  
Month to date cooling degree days 7 6  
Year to date cooling degree days 465 376  
Growing Degree Days 20 (Base 50)    
Moisture  
Dew Point 65 °F    
Average Humidity 81    
Maximum Humidity 97    
Minimum Humidity 64    
Precipitation  
Precipitation T in 0.39 in 6.68 in (1954)
Month to date precipitation T 0.39  
Year to date precipitation 8.23 19.21  
Snow  
Snow 0.00 in - - ()
Month to date snowfall 0.0  
Since 1 July snowfall 0.0  
Snow Depth 0.00 in    
Sea Level Pressure  
Sea Level Pressure 29.93 in    
Wind  
Wind Speed 6 mph (WNW)    
Max Wind Speed 13 mph    
Max Gust Speed 17 mph    
Visibility 10 miles    
Events Rain    
T = Trace of Precipitation, MM = Missing Value Source: NWS Daily Summary

Daily Weather History Graph

Daily Weather History Graph

Search for Another Location

Airport:

Trip Planner

Search our weather history database for the weather conditions in past years. The results will help you decide how hot, cold, wet, or windy it might be!

Date:

Astronomy

Mar. 01, 2014 Rise Set
Actual Time 6:39 AM HST 6:25 PM HST
Civil Twilight 6:17 AM HST 6:47 PM HST
Nautical Twilight 5:52 AM HST 7:13 PM HST
Astronomical Twilight 5:26 AM HST 7:38 PM HST
Moon 6:49 AM HST (3/1) 7:11 PM HST (3/1)
Length of Visible Light 12h 30m
Length of Day
11h 45m
New Moon, 0% of the Moon is Illuminated
Mar 1
New Moon
Mar 8
First Quarter
Mar 16
Full
Mar 23
Last Quarter
Mar 30
New

Hourly Weather History & Observations

Time (HST) Temp. Heat Index Dew Point Humidity Pressure Visibility Wind Dir Wind Speed Gust Speed Precip Events Conditions
12:53 AM 64.9 °F - 60.1 °F 84% 29.95 in 10.0 mi SSW 3.5 mph - N/A   Clear
1:53 AM 62.1 °F - 59.0 °F 90% 29.93 in 10.0 mi SW 4.6 mph - N/A   Clear
2:53 AM 62.1 °F - 57.9 °F 86% 29.92 in 10.0 mi Calm Calm - N/A   Clear
3:53 AM 62.1 °F - 57.9 °F 86% 29.91 in 10.0 mi SW 4.6 mph - N/A   Clear
4:53 AM 63.0 °F - 57.9 °F 84% 29.91 in 10.0 mi WSW 5.8 mph - N/A   Clear
5:53 AM 64.0 °F - 57.0 °F 78% 29.92 in 10.0 mi SW 9.2 mph - N/A   Partly Cloudy
6:53 AM 64.0 °F - 57.0 °F 78% 29.94 in 10.0 mi WSW 6.9 mph - N/A   Partly Cloudy
7:53 AM 68.0 °F - 59.0 °F 73% 29.96 in 10.0 mi WSW 4.6 mph - N/A   Clear
8:53 AM 75.0 °F - 62.1 °F 64% 29.96 in 10.0 mi Calm Calm - N/A   Clear
9:53 AM 78.1 °F - 66.9 °F 68% 29.97 in 10.0 mi NNE 5.8 mph - N/A   Clear
10:53 AM 79.0 °F - 66.9 °F 66% 29.96 in 10.0 mi North 8.1 mph - N/A   Clear
11:53 AM 80.1 °F 82.9 °F 69.1 °F 69% 29.95 in 10.0 mi NE 10.4 mph - N/A   Mostly Cloudy
12:53 PM 82.0 °F 85.5 °F 69.1 °F 65% 29.93 in 10.0 mi ENE 9.2 mph - N/A   Partly Cloudy
1:53 PM 79.0 °F - 69.1 °F 72% 29.90 in 10.0 mi NNE 9.2 mph - N/A   Mostly Cloudy
2:53 PM 78.1 °F - 69.1 °F 74% 29.88 in 10.0 mi North 9.2 mph - N/A   Mostly Cloudy
3:53 PM 77.0 °F - 69.1 °F 76% 29.88 in 10.0 mi North 8.1 mph - N/A   Mostly Cloudy
4:53 PM 75.9 °F - 69.1 °F 79% 29.88 in 10.0 mi North 9.2 mph - N/A   Mostly Cloudy
5:53 PM 75.0 °F - 70.0 °F 84% 29.90 in 10.0 mi North 5.8 mph - 0.00 in Rain Light Rain
6:53 PM 73.0 °F - 69.1 °F 87% 29.91 in 10.0 mi NNW 4.6 mph - 0.00 in   Overcast
7:53 PM 73.0 °F - 69.1 °F 87% 29.92 in 10.0 mi Calm Calm - N/A   Mostly Cloudy
8:53 PM 71.1 °F - 69.1 °F 93% 29.94 in 10.0 mi South 4.6 mph - N/A   Scattered Clouds
9:53 PM 70.0 °F - 68.0 °F 93% 29.95 in 10.0 mi WSW 3.5 mph - N/A   Partly Cloudy
10:53 PM 68.0 °F - 66.0 °F 93% 29.95 in 10.0 mi SW 4.6 mph - N/A   Partly Cloudy
11:53 PM 68.0 °F - 64.9 °F 90% 29.94 in 10.0 mi SW 5.8 mph - N/A   Mostly Cloudy